OSCAR 32

Last updated on Sat Sep 05 2026 00:03:34 GMT+0000 (Coordinated Universal Time)

1 19071U 88033B 26247.31746277 .00000067 00000+0 11577-3 0 9994 2 19071 90.3341 24.9452 0188924 147.9948 240.1739 13.27988464857907
UTC large
Height (km)
Speed (km/s)
/
Latitude / Longitude
Inclination (degrees)
Orbital Period (minutes)
Azimuth
Elevation
Range (km)
Doppler Factor

Next 0 passes for location: London (51.5072 / 0.1276)

No passes found over London.
OSCAR 32